Regional Weather Roundup
Issued by NWS

Home | Current Version | Previous Version | Text Only | Print | Product List | Glossary On
Versions: 1 2 3 4 5 6 7 8 9 10 11 12 13 14 15 16 17 18 19 20 21 22 23 24 25 26 27 28 29 30 31 32 33 34 35 36 37 38 39 40 41 42 43 44 45 46 47 48 49
000
ASUS46 KSEW 301110
RWRWA

WASHINGTON REGIONAL WEATHER ROUNDUP
NATIONAL WEATHER SERVICE SEATTLE WA
300 AM PST FRI JAN 30 2015

NOTE:"FAIR" INDICATES FEW OR NO CLOUDS BELOW 12,000 FEET WITH NO
SIGNIFICANT WEATHER AND/OR OBSTRUCTIONS TO VISIBILITY.

WAZ505-507>509-301200-
SEATTLE, TACOMA, EVERETT, AND VICINITY

CITY           SKY/WX    TMP DP  RH WIND       PRES   REMARKS
EVERETT        FOG       40  38  93 NE5       30.32R VSB 1/4
BOEING FIELD   CLEAR     41  37  86 CALM      30.33R
RENTON         CLEAR     35  34  96 CALM      30.33R
SEATAC AIRPORT CLEAR     40  37  89 NE5       30.32R
JBLM-MCCHORD   CLOUDY    34  34 100 S2        30.32R FOG
PUYALLUP       PTSUNNY   32  32 100 CALM      30.32R FOG
BREMERTON        N/A     30  30 100 CALM      30.34R
JBLM-FT LEWIS  CLOUDY    31  31  99 SE2       30.32R FOG
TACOMA NARROWS FOG       40  40 100 CALM      30.32S VSB 3/4
$$

WAZ001-503-506-510-514-515-301200-
NORTH INTERIOR

CITY           SKY/WX    TMP DP  RH WIND       PRES   REMARKS
BELLINGHAM     PTCLDY    36  32  85 CALM      30.32F
FRIDAY HARBOR  PTCLDY    38  37  97 CALM      30.34S
EASTSOUND      PTCLDY    39  39 100 CALM      30.32S FOG
PORT ANGELES   PTCLDY    34  32  92 S3        30.32F
NAS WHIDBEY    PTCLDY    38  35  89 E5        30.34R FOG
ARLINGTON      CLOUDY    30  28  93 CALM      30.34S VSB 1/4
BURLINGTON     CLEAR     36 N/A N/A CALM      30.34S
$$

WAZ020-022-039-040-504-511-512-301200-
SOUTHWEST INTERIOR

CITY           SKY/WX    TMP DP  RH WIND       PRES   REMARKS
SHELTON        FOG       30  28  92 CALM      30.30S VSB 3/4
OLYMPIA        FOG       30  30 100 CALM      30.32S VSB 1/2
CHEHALIS       FOG       37  37 100 CALM      30.33R VSB 1/4
KELSO          CLOUDY    39  36  87 NW3       30.35R VSB 1/2
VANCOUVER      CLEAR     34  31  88 CALM      30.31R
SCAPPOOSE, OR  FOG       33  32  96 CALM      30.30R VSB 1/2
PORTLAND, OR   CLEAR     37  37 100 CALM      30.31R
$$

WAZ021-516-517-301200-
WASHINGTON COAST

CITY           SKY/WX    TMP DP  RH WIND       PRES   REMARKS
FORKS          PTCLDY    34  34 100 CALM      30.30S
HOQUIAM        CLEAR     38  37  97 E6        30.30R
ASTORIA, OR    CLEAR     38  36  92 E3        30.28R
$$

WAZ019-023-024-040-518-519-301200-
CASCADE MOUNTAINS AND COLUMBIA GORGE

CITY           SKY/WX    TMP DP  RH WIND       PRES   REMARKS
TROUTDALE, OR  CLEAR     43  33  68 E21G26    30.29R
THE DALLES, OR CLOUDY    40  35  83 E3        30.45S
$$

WAZ026-027-041>044-520-521-301200-
EAST SLOPES

CITY           SKY/WX    TMP DP  RH WIND       PRES   REMARKS
OMAK           CLOUDY    34  32  92 NW5       30.42S
WENATCHEE      CLOUDY    35  31  85 NW7       30.43R
ELLENSBURG     CLOUDY    34  31  88 W7        30.40R FOG
YAKIMA         CLOUDY    37  34  89 CALM      30.43R
$$

WAZ028-034-035-301200-
COLUMBIA BASIN

CITY           SKY/WX    TMP DP  RH WIND       PRES   REMARKS
EPHRATA        CLOUDY    38  35  89 N3        30.40S
MOSES LAKE     CLOUDY    36  35  96 CALM      30.41F
PASCO          CLOUDY    38  37  97 W3        30.45S
HERMISTON, OR  CLOUDY    37  35  92 NW5       30.43S FOG
$$

WAZ036>038-301200-
NORTHEAST WASHINGTON

CITY           SKY/WX    TMP DP  RH WIND       PRES   REMARKS
SPOKANE GEIGER FOG       29  28  96 N7        30.36R VSB 1/4
SPOKANE FELTS  CLOUDY    31  29  92 CALM      30.39R
FAIRCHILD AFB  FOG       28  28 100 NE5       30.35R VSB 3/4
COEURDALENE,ID CLOUDY    30  28  93 E6        30.35F
DEER PARK      CLOUDY    24  23  96 CALM      30.37F FOG
$$

WAZ029>033-301200-
SOUTHEAST WASHINGTON

CITY           SKY/WX    TMP DP  RH WIND       PRES   REMARKS
PULLMAN        FOG       31  30  96 CALM      30.36S VSB 1/2
LEWISTON, ID   CLOUDY    37  36  96 CALM      30.38S
WALLA WALLA    CLOUDY    36  32  85 SE3       30.41S
PENDLETON, OR  CLOUDY    34  33  96 CALM      30.39S FOG
$$


USA.gov is the U.S. government's official web portal to all federal, state and local government web resources and services.